Wind_Speed
5 9 12 10 9 10 12 12 13 13 13 14 12 12 13 13 13 12 13 13 12 11 10 8 7 7 7 7 7 8 7 5 3 3 3 5 7 8 8 7 8 6 6
3 8 9 9 7 7 8 9 12 14 13 14 15 14 13 13 13 13 12 12 11 11 10 11 9 6 4 6 7 8 8 7 6 6 7 6 6 6 6 6 6 6 9
9 7 10 8 8 8 10 9 11 15 17 17 17 16 16 15 15 13 13 12 11 12 12 10 9 7 3 4 5 7 7 9 8 7 8 8 7 5 4 5 6 7 4
6 8 9 7 8 9 10 12 14 16 17 18 19 19 18 17 16 15 14 14 13 12 11 10 9 7 4 4 3 5 6 7 9 9 7 7 7 3 1 2 3 1 3
7 7 6 8 8 9 12 14 16 19 19 18 18 19 19 18 17 17 16 14 12 11 11 11 10 7 5 4 2 0 3 6 9 7 7 4 1 2 2 3 4 5 9
5 5 8 9 11 12 14 16 17 17 17 18 18 18 18 20 19 17 16 15 13 12 10 9 9 8 6 5 3 2 3 4 6 6 7 3 2 4 4 5 7 10 11
7 9 10 10 11 12 14 15 16 17 17 17 17 17 17 18 19 16 18 16 13 11 10 9 7 6 5 6 7 5 6 8 8 7 6 6 7 9 7 10 12 15 14
8 10 12 12 12 14 15 15 16 15 14 14 14 14 13 13 13 13 14 14 13 12 9 8 7 5 5 6 7 8 9 11 9 10 11 9 9 10 10 14 16 16 12
11 10 12 12 10 13 14 12 12 11 11 11 11 9 10 10 7 9 9 9 9 9 9 8 7 6 5 5 8 11 15 14 13 11 16 15 15 13 13 13 16 13 14
15 12 11 10 9 10 12 9 7 7 8 10 10 9 7 6 5 5 6 6 7 8 8 9 9 8 7 7 9 12 14 15 16 16 17 22 19 14 13 16 17 16 15
17 16 16 16 11 9 8 6 4 4 7 10 11 11 10 8 8 4 4 3 2 3 4 7 6 10 11 11 6 8 13 13 16 16 18 16 22 21 15 21 16 17 15
17 19 18 21 16 10 7 3 1 4 8 11 14 15 15 15 15 14 10 9 7 3 3 3 3 3 6 9 7 8 14 14 15 16 15 11 16 12 14 18 19 17 14
19 17 19 15 13 9 5 2 2 7 10 12 14 16 16 15 15 14 13 11 10 11 11 9 6 7 6 5 6 10 14 18 17 15 17 17 17 20 15 19 20 18 15
19 19 15 14 11 9 7 3 5 8 10 12 14 15 14 15 15 14 13 12 11 12 12 13 11 7 8 9 8 6 13 16 18 19 20 23 21 22 18 20 23 21 19
18 19 17 14 13 10 7 7 7 8 10 12 12 13 13 13 13 13 12 12 12 12 13 13 13 11 10 10 11 12 9 11 16 19 21 25 28 23 20 22 22 24 23
20 20 19 17 15 12 11 10 9 9 10 11 12 13 13 13 12 11 11 12 12 14 16 16 17 16 15 13 13 15 17 13 15 21 24 27 26 25 25 25 26 25 24
23 22 20 18 17 15 14 12 10 10 11 11 12 14 14 13 13 13 13 14 16 18 18 18 18 18 18 17 16 15 18 22 22 21 24 26 27 29 29 29 26 25 27
26 24 21 20 19 17 16 14 12 11 11 11 12 13 13 13 12 12 12 13 14 16 17 19 21 22 22 21 23 21 17 20 25 26 26 27 31 30 33 33 30 29 29
28 25 23 22 20 19 17 15 14 12 12 12 12 13 11 12 11 12 13 13 15 18 19 22 21 21 20 22 22 22 22 22 23 29 30 28 28 32 35 37 38 33 29
30 27 24 23 21 20 18 16 14 13 12 12 13 12 11 11 9 11 12 14 15 18 20 22 24 22 23 23 22 24 25 25 22 27 33 34 33 29 33 38 37 40 36
31 28 26 24 24 21 19 16 14 13 13 11 12 10 12 9 10 11 13 13 16 19 19 20 22 23 25 27 30 33 37 26 24 23 33 33 38 38 32 36 42 41 40
31 30 27 26 25 22 19 16 14 13 11 11 11 11 11 9 11 11 12 13 17 18 20 22 22 25 24 25 29 31 30 41 20 27 30 34 31 31 30 31 39 39 45
32 29 28 27 24 22 18 16 15 13 11 10 10 10 8 8 10 10 11 15 16 17 19 20 22 25 26 27 27 28 32 28 40 36 43 38 37 36 34 27 29 38 40
31 27 26 27 26 23 20 18 16 13 11 10 10 9 7 8 8 9 13 16 15 16 18 20 22 22 24 30 31 31 32 29 34 45 38 40 40 34 35 30 27 29 40
30 26 27 28 26 25 21 19 16 13 12 10 10 9 8 8 10 13 15 15 16 18 19 23 22 23 28 29 29 34 34 35 38 34 36 43 45 40 37 39 32 24 31
30 26 27 31 29 25 23 21 17 15 12 12 11 10 9 12 14 16 16 16 17 20 21 23 27 28 27 30 32 34 35 37 39 34 34 39 48 50 40 41 39 36 26
Wind_Direction
54 48 31 31 53 50 51 45 40 40 57 47 55 61 50 47 47 48 48 46 43 38 35 36 39 37 44 50 60 51 57 61 80 101 96 116 126 126 123 116 119 118 113
107 62 36 17 30 43 41 47 47 49 64 53 51 49 44 37 39 41 39 41 40 38 33 28 20 31 51 50 61 53 52 60 77 90 102 101 117 117 121 122 126 121 113
99 55 32 21 40 52 51 59 57 60 66 63 57 51 44 36 28 30 31 31 35 35 34 33 30 26 20 47 52 49 56 66 73 94 104 111 110 113 118 131 138 130 92
17 30 50 34 48 61 62 67 65 66 65 62 56 53 51 46 40 35 27 22 22 22 21 25 30 32 30 12 44 60 61 78 92 92 92 95 103 94 125 180 161 42 31
17 44 52 58 66 79 86 84 79 75 71 65 57 50 46 43 43 41 37 30 25 20 19 16 14 19 22 359 355 43 80 100 118 119 124 118 115 327 212 207 290 315 311
21 50 82 81 90 93 88 85 80 71 66 61 55 50 49 46 40 40 37 33 29 23 18 17 15 6 352 341 319 277 217 154 156 138 127 169 220 284 277 258 303 305 292
66 75 95 94 95 100 95 87 78 73 68 63 59 57 51 46 37 34 33 30 28 22 18 12 12 355 336 329 317 301 243 220 215 218 185 212 246 261 257 274 292 300 294
109 96 91 102 105 105 100 93 87 81 73 65 59 50 47 44 28 25 27 20 22 23 19 9 8 347 321 305 294 294 284 250 243 238 235 204 226 243 276 280 290 294 281
117 113 100 92 110 114 110 100 90 79 67 58 53 42 33 31 28 9 15 16 18 14 15 10 353 339 309 286 279 285 287 273 258 258 252 238 229 244 268 280 289 285 277
134 127 120 102 103 123 120 111 93 59 47 38 37 31 21 24 6 6 342 3 1 4 8 3 354 345 333 290 279 282 281 270 265 284 251 237 252 244 268 281 279 276 270
167 159 162 151 137 141 142 130 108 34 23 23 25 23 20 18 22 359 340 300 294 325 337 339 347 349 354 341 298 283 288 280 271 266 267 256 239 263 276 274 272 269 261
177 178 185 184 180 178 167 159 63 4 11 12 13 11 13 9 7 12 10 357 357 342 268 285 289 304 335 356 345 300 277 278 270 266 265 255 256 246 273 275 269 259 252
195 194 192 191 186 195 206 230 340 360 3 6 4 5 8 6 3 4 4 2 354 347 345 342 322 301 304 316 337 328 315 290 274 260 251 245 251 266 265 254 261 253 255
204 202 196 199 205 211 226 266 341 350 353 357 359 355 357 356 355 358 1 0 356 352 347 343 337 313 286 280 296 300 312 308 294 272 261 250 268 273 260 253 259 249 241
209 202 204 209 218 228 250 286 318 333 343 346 342 343 348 347 350 354 355 353 353 355 350 350 347 336 315 285 266 281 297 296 292 288 280 272 266 267 252 254 258 244 236
214 211 213 219 224 236 251 272 295 314 327 330 331 336 340 341 348 352 353 353 354 358 356 352 350 345 340 322 297 269 269 269 269 277 281 281 268 262 254 249 255 242 242
221 222 221 225 230 240 257 273 290 304 315 322 327 332 335 341 351 356 357 354 353 354 353 350 347 342 338 331 320 300 274 265 265 267 275 275 275 265 258 246 243 248 240
222 225 227 228 236 247 260 273 287 296 304 315 319 325 331 336 345 351 352 355 354 350 349 345 344 340 336 334 328 322 310 282 270 266 272 271 274 274 257 246 241 248 238
220 224 227 231 240 248 256 268 279 290 296 303 311 320 328 336 336 339 344 347 348 346 345 343 344 342 338 332 332 321 315 304 289 269 268 272 272 265 262 251 245 246 245
224 226 226 231 236 243 253 265 274 279 286 298 310 322 334 334 331 336 340 344 343 340 340 338 338 340 339 338 330 325 318 310 300 284 274 270 268 271 259 263 251 236 243
224 223 226 231 238 244 254 263 269 275 283 296 308 320 329 328 339 341 347 343 337 333 333 332 336 336 336 338 335 327 323 328 310 302 276 280 269 266 268 255 255 256 235
227 225 223 226 235 245 252 260 266 272 283 298 310 318 315 327 339 342 335 336 329 328 331 331 334 329 330 331 330 325 327 318 325 303 296 289 277 272 260 259 252 248 244
228 227 227 229 236 244 249 256 262 269 281 296 301 297 304 312 316 328 330 318 322 323 324 324 324 326 320 322 320 315 316 308 312 314 311 302 302 290 278 264 253 246 240
230 231 227 226 234 242 250 255 260 266 281 291 296 296 291 293 308 309 307 308 310 310 310 313 312 313 308 311 315 311 310 301 305 309 308 304 306 302 292 271 256 247 242
228 231 226 224 233 241 246 254 261 271 280 293 298 292 287 296 302 301 307 306 310 310 306 304 307 303 300 304 304 306 308 300 302 296 298 306 306 297 292 284 277 252 243
226 227 226 225 230 235 240 249 259 267 281 292 294 286 287 291 296 302 310 310 308 305 309 307 300 300 300 300 301 303 300 298 298 290 289 295 300 298 292 289 283 271 248
Height
1574 1573 1573 1571 1570 1569 1568 1566 1564 1563 1563 1561 1561 1560 1560 1559 1559 1559 1559 1558 1557 1557 1557 1557 1557 1557 1557 1557 1557 1557 1557 1557 1557 1558 1559 1560 1560 1560 1562 1563 1564 1565 1566
1574 1572 1572 1571 1570 1569 1568 1567 1565 1564 1563 1563 1562 1562 1562 1561 1560 1560 1560 1559 1559 1558 1557 1557 1557 1557 1557 1558 1558 1557 1557 1557 1557 1558 1558 1560 1561 1562 1563 1564 1565 1565 1566
1573 1573 1571 1571 1570 1569 1569 1567 1567 1566 1565 1565 1564 1563 1563 1562 1561 1561 1560 1560 1559 1558 1558 1557 1557 1557 1557 1557 1558 1558 1557 1557 1557 1558 1559 1560 1561 1563 1564 1564 1565 1566 1567
1573 1572 1571 1571 1570 1570 1569 1569 1568 1568 1567 1566 1565 1564 1564 1563 1562 1561 1561 1561 1560 1559 1558 1557 1557 1556 1556 1557 1557 1557 1557 1557 1558 1558 1559 1560 1561 1562 1564 1565 1566 1566 1566
1572 1571 1571 1571 1570 1570 1569 1569 1568 1568 1568 1568 1567 1566 1565 1564 1563 1562 1561 1560 1559 1559 1559 1558 1557 1556 1556 1556 1556 1556 1557 1557 1558 1558 1558 1559 1560 1561 1562 1563 1564 1565 1565
1572 1571 1570 1571 1570 1570 1570 1570 1569 1569 1569 1568 1567 1566 1565 1564 1563 1562 1561 1560 1559 1558 1557 1557 1556 1556 1556 1555 1555 1555 1556 1557 1557 1557 1557 1558 1557 1558 1561 1561 1562 1564 1564
1571 1571 1570 1571 1570 1570 1570 1570 1570 1570 1569 1569 1568 1567 1566 1564 1564 1562 1561 1560 1559 1558 1557 1556 1555 1555 1555 1555 1554 1554 1554 1555 1555 1556 1556 1557 1557 1556 1556 1558 1560 1561 1561
1571 1571 1571 1571 1571 1571 1570 1570 1570 1570 1569 1569 1567 1566 1565 1564 1563 1562 1560 1560 1558 1557 1556 1555 1554 1553 1553 1553 1553 1553 1553 1553 1555 1556 1554 1554 1555 1555 1555 1554 1556 1557 1557
1571 1571 1571 1571 1570 1570 1570 1570 1569 1569 1568 1568 1567 1565 1564 1563 1562 1561 1559 1558 1557 1556 1555 1554 1553 1552 1551 1551 1551 1551 1551 1552 1553 1555 1554 1553 1552 1551 1551 1551 1553 1554 1554
1571 1571 1571 1571 1570 1570 1569 1569 1568 1568 1567 1566 1566 1564 1562 1561 1560 1559 1557 1556 1555 1554 1553 1551 1551 1550 1549 1549 1548 1548 1547 1548 1549 1550 1550 1549 1551 1550 1546 1545 1549 1550 1551
1569 1570 1569 1569 1568 1568 1567 1567 1567 1566 1566 1564 1563 1561 1560 1559 1558 1556 1554 1553 1552 1551 1550 1549 1548 1547 1547 1546 1546 1546 1545 1545 1545 1545 1545 1545 1548 1549 1545 1544 1545 1547 1547
1566 1566 1567 1567 1567 1566 1566 1566 1566 1565 1564 1562 1560 1558 1557 1555 1554 1553 1552 1550 1549 1548 1547 1546 1545 1544 1543 1543 1544 1545 1543 1543 1542 1542 1542 1543 1544 1546 1544 1542 1543 1544 1544
1564 1564 1564 1565 1565 1565 1565 1565 1564 1563 1561 1559 1557 1556 1555 1553 1552 1550 1549 1548 1546 1545 1544 1544 1544 1542 1542 1541 1540 1542 1542 1541 1540 1539 1539 1541 1542 1542 1543 1542 1541 1542 1542
1561 1561 1561 1562 1563 1563 1563 1563 1562 1561 1559 1557 1555 1555 1553 1551 1550 1548 1547 1545 1544 1543 1541 1540 1540 1539 1539 1539 1537 1537 1538 1538 1537 1537 1537 1538 1537 1538 1540 1541 1540 1540 1540
1557 1558 1558 1559 1560 1561 1560 1560 1560 1559 1557 1555 1554 1553 1551 1550 1548 1546 1545 1543 1542 1540 1539 1538 1536 1535 1535 1534 1535 1533 1533 1534 1535 1535 1535 1535 1535 1534 1536 1537 1538 1538 1539
1553 1554 1555 1556 1557 1558 1558 1557 1557 1556 1555 1553 1551 1550 1549 1547 1546 1544 1542 1540 1539 1537 1536 1535 1533 1532 1531 1530 1530 1530 1530 1529 1529 1530 1530 1530 1531 1531 1532 1535 1535 1535 1535
1548 1550 1552 1552 1552 1553 1554 1554 1554 1553 1552 1550 1548 1547 1545 1543 1541 1540 1538 1537 1535 1534 1533 1532 1531 1529 1528 1527 1526 1525 1525 1524 1524 1524 1525 1525 1526 1526 1526 1529 1530 1532 1532
1543 1545 1547 1548 1548 1549 1549 1550 1550 1550 1548 1547 1545 1543 1542 1540 1538 1537 1536 1535 1533 1532 1531 1529 1527 1526 1524 1522 1520 1520 1520 1519 1519 1517 1518 1518 1519 1519 1521 1523 1525 1527 1528
1538 1540 1542 1543 1544 1544 1544 1546 1546 1546 1545 1543 1542 1541 1539 1538 1536 1535 1534 1532 1531 1529 1528 1526 1525 1523 1521 1519 1517 1515 1514 1513 1512 1512 1510 1510 1511 1512 1513 1513 1517 1521 1523
1533 1535 1537 1538 1539 1540 1540 1542 1543 1542 1541 1540 1538 1537 1536 1535 1534 1533 1531 1529 1528 1526 1525 1523 1522 1520 1519 1516 1513 1511 1509 1508 1507 1505 1505 1504 1504 1503 1505 1505 1508 1511 1515
1528 1530 1531 1533 1533 1535 1536 1538 1538 1537 1537 1536 1534 1534 1532 1532 1531 1529 1528 1526 1525 1524 1522 1521 1519 1517 1515 1513 1508 1505 1501 1501 1501 1500 1496 1494 1494 1495 1495 1498 1499 1501 1504
1521 1524 1526 1527 1528 1530 1532 1533 1533 1533 1532 1531 1530 1529 1529 1528 1527 1526 1525 1524 1523 1521 1520 1518 1516 1514 1513 1512 1509 1505 1496 1492 1494 1494 1490 1487 1484 1486 1485 1487 1489 1492 1496
1513 1517 1519 1521 1523 1525 1527 1528 1528 1528 1528 1527 1526 1526 1525 1524 1524 1523 1522 1520 1519 1517 1515 1514 1513 1511 1508 1508 1509 1508 1500 1495 1486 1487 1484 1482 1479 1478 1476 1477 1478 1483 1486
1507 1511 1514 1516 1517 1519 1521 1522 1523 1523 1523 1523 1522 1521 1521 1520 1520 1519 1518 1517 1515 1514 1513 1511 1510 1508 1506 1504 1502 1501 1501 1497 1490 1476 1477 1474 1471 1469 1467 1466 1467 1471 1477
1501 1504 1507 1510 1512 1513 1515 1516 1518 1518 1519 1518 1518 1517 1517 1517 1516 1515 1514 1512 1511 1510 1508 1507 1506 1505 1503 1500 1499 1495 1492 1490 1486 1481 1471 1464 1463 1463 1460 1457 1458 1459 1467
1495 1498 1501 1503 1506 1508 1509 1511 1513 1514 1514 1513 1513 1513 1513 1512 1512 1511 1509 1508 1507 1505 1504 1503 1502 1500 1498 1496 1493 1490 1487 1483 1478 1475 1469 1463 1456 1447 1450 1447 1449 1450 1453